| time (UTC) | temp C | wind direction | speed KPH | gust KPH | rain 1hr cm | rain 24hr cm | rain mn cm | humidity % | barometer mb |
| 20260504070311 | 25 | 315 | 0.0 | 0.0 | 0.00 | 0.00 | 0.00 | 99 | 1020.0 |
| 20260504050650 | 25 | 180 | 0.0 | 0.0 | 0.00 | 0.69 | 0.00 | 99 | 1021.3 |
| 20260504050144 | 25 | 270 | 0.0 | 0.0 | 0.00 | 0.69 | 0.00 | 99 | 1021.3 |
| 20260504045647 | 25 | 135 | 0.0 | 0.0 | 0.00 | 0.69 | 0.00 | 99 | 1021.3 |
| 20260504045138 | 25 | 225 | 0.0 | 0.0 | 0.00 | 0.69 | 0.00 | 99 | 1021.3 |
| 20260504044635 | 25 | 225 | 0.0 | 0.0 | 0.00 | 0.69 | 0.00 | 99 | 1021.3 |
| 20260504044125 | 25 | 180 | 0.0 | 0.0 | 0.00 | 0.69 | 0.00 | 99 | 1021.3 |
| 20260504043616 | 25 | 293 | 0.0 | 0.0 | 0.00 | 0.69 | 0.00 | 99 | 1021.3 |
| 20260504043113 | 25 | 248 | 0.0 | 0.0 | 0.00 | 0.69 | 0.00 | 99 | 1021.3 |
| 20260504042609 | 23 | 180 | 0.0 | 0.0 | 0.00 | 0.69 | 0.00 | 99 | 1021.3 |
| 20260504042106 | 25 | 248 | 6.4 | 17.7 | 0.00 | 0.69 | 0.00 | 99 | 1021.3 |
| 20260504041558 | 25 | 248 | 0.0 | 0.0 | 0.00 | 0.69 | 0.00 | 99 | 1021.3 |
| 20260504041057 | 25 | 225 | 0.0 | 0.0 | 0.00 | 0.69 | 0.00 | 99 | 1021.3 |
| 20260504040555 | 23 | 68 | 0.0 | 0.0 | 0.00 | 0.69 | 0.00 | 99 | 1021.0 |
| 20260504040057 | 23 | 113 | 0.0 | 0.0 | 0.00 | 0.69 | 0.00 | 99 | 1021.0 |
| 20260504035548 | 23 | 225 | 11.3 | 17.7 | 0.00 | 0.69 | 0.00 | 99 | 1021.0 |
| 20260504035045 | 23 | 293 | 0.0 | 0.0 | 0.00 | 0.69 | 0.00 | 99 | 1020.7 |
| 20260504034547 | 23 | 225 | 0.0 | 17.7 | 0.00 | 0.69 | 0.00 | 99 | 1020.7 |
| 20260504034036 | 23 | 248 | 0.0 | 0.0 | 0.00 | 0.69 | 0.00 | 99 | 1021.0 |
| 20260504033525 | 25 | 180 | 0.0 | 0.0 | 0.00 | 0.66 | 0.00 | 99 | 1021.0 |
| 20260504033023 | 23 | 225 | 0.0 | 6.4 | 0.00 | 0.66 | 0.00 | 99 | 1021.0 |
| 20260504032516 | 25 | 135 | 0.0 | 17.7 | 0.00 | 0.66 | 0.00 | 99 | 1021.0 |
| 20260504032008 | 25 | 293 | 0.0 | 0.0 | 0.00 | 0.66 | 0.00 | 99 | 1021.0 |
| 20260504031506 | 25 | 225 | 0.0 | 17.7 | 0.00 | 0.66 | 0.00 | 99 | 1021.0 |
| 20260504031005 | 23 | 248 | 0.0 | 0.0 | 0.00 | 0.66 | 0.00 | 99 | 1021.0 |
| 20260504030500 | 23 | 90 | 0.0 | 20.9 | 0.00 | 0.66 | 0.00 | 99 | 1021.0 |
| 20260504025958 | 23 | 180 | 0.0 | 0.0 | 0.00 | 0.66 | 0.00 | 99 | 1021.0 |
| 20260504025459 | 25 | 293 | 0.0 | 0.0 | 0.00 | 0.66 | 0.00 | 99 | 1021.0 |
| 20260504024947 | 25 | 315 | 0.0 | 0.0 | 0.00 | 0.66 | 0.00 | 99 | 1020.7 |
| 20260504024450 | 25 | 68 | 17.7 | 17.7 | 0.00 | 0.66 | 0.00 | 99 | 1020.7 |
| 20260504023948 | 25 | 315 | 0.0 | 17.7 | 0.00 | 0.64 | 0.00 | 99 | 1020.7 |
| 20260504023455 | 25 | 293 | 0.0 | 0.0 | 0.00 | 0.64 | 0.00 | 99 | 1020.7 |
| 20260504022858 | 25 | 315 | 20.9 | 20.9 | 0.00 | 0.64 | 0.00 | 99 | 1020.7 |
| 20260504022355 | 25 | 293 | 11.3 | 17.7 | 0.00 | 0.64 | 0.00 | 99 | 1020.3 |
| 20260504021855 | 25 | 338 | 11.3 | 20.9 | 0.00 | 0.64 | 0.00 | 99 | 1020.3 |
| 20260504021341 | 25 | 225 | 11.3 | 35.4 | 0.00 | 0.64 | 0.00 | 99 | 1020.3 |
| 20260504020842 | 25 | 90 | 0.0 | 11.3 | 0.00 | 0.64 | 0.00 | 99 | 1020.3 |
| 20260504020339 | 25 | 293 | 0.0 | 20.9 | 0.00 | 0.61 | 0.00 | 99 | 1020.3 |
| 20260504015835 | 25 | 158 | 11.3 | 11.3 | 0.00 | 0.56 | 0.00 | 99 | 1020.3 |
| 20260504015332 | 25 | 293 | 6.4 | 17.7 | 0.00 | 0.53 | 0.00 | 99 | 1020.3 |
| 20260504014828 | 25 | 23 | 17.7 | 20.9 | 0.00 | 0.46 | 0.00 | 99 | 1020.3 |
| 20260504013818 | 25 | 0 | 0.0 | 40.2 | 0.00 | 0.46 | 0.00 | 99 | 1020.3 |
| 20260504013316 | 25 | 338 | 17.7 | 20.9 | 0.00 | 0.43 | 0.00 | 99 | 1020.3 |
| 20260504012811 | 25 | 225 | 0.0 | 20.9 | 0.00 | 0.36 | 0.00 | 99 | 1020.3 |
| 20260504012310 | 25 | 225 | 11.3 | 11.3 | 0.00 | 0.28 | 0.00 | 99 | 1020.0 |
| 20260504011803 | 25 | 225 | 17.7 | 17.7 | 0.00 | 0.20 | 0.00 | 99 | 1020.0 |
| 20260504011301 | 26 | 158 | 17.7 | 29.0 | 0.00 | 0.20 | 0.00 | 99 | 1020.0 |
| 20260504010255 | 26 | 113 | 6.4 | 29.0 | 0.00 | 0.20 | 0.00 | 99 | 1020.0 |
| 20260504005754 | 26 | 338 | 11.3 | 17.7 | 0.00 | 0.20 | 0.00 | 99 | 1019.6 |
| 20260504005249 | 26 | 90 | 11.3 | 20.9 | 0.00 | 0.20 | 0.00 | 99 | 1019.6 |
| 20260504004746 | 26 | 90 | 11.3 | 20.9 | 0.00 | 0.20 | 0.00 | 99 | 1019.6 |
| 20260504004246 | 26 | 225 | 11.3 | 11.3 | 0.00 | 0.20 | 0.00 | 99 | 1019.6 |
| 20260504003738 | 26 | 68 | 29.0 | 29.0 | 0.00 | 0.20 | 0.00 | 99 | 1019.6 |
| 20260504003233 | 26 | 203 | 11.3 | 20.9 | 0.00 | 0.20 | 0.00 | 99 | 1019.3 |
| 20260504002741 | 26 | 270 | 11.3 | 29.0 | 0.00 | 0.20 | 0.00 | 99 | 1019.3 |
| 20260503235535 | 26 | 225 | 17.7 | 20.9 | 0.00 | 0.20 | 0.00 | 99 | 1019.0 |
| 20260503235026 | 26 | 248 | 11.3 | 40.2 | 0.00 | 0.20 | 0.00 | 99 | 1019.0 |
| 20260503234525 | 26 | 315 | 17.7 | 35.4 | 0.00 | 0.20 | 0.00 | 99 | 1018.6 |
| 20260503234017 | 26 | 338 | 17.7 | 29.0 | 0.00 | 0.20 | 0.00 | 98 | 1018.6 |
| 20260503233518 | 27 | 248 | 35.4 | 35.4 | 0.00 | 0.20 | 0.00 | 98 | 1018.6 |
| 20260503233013 | 27 | 180 | 29.0 | 29.0 | 0.00 | 0.20 | 0.00 | 97 | 1018.6 |
| 20260503232511 | 27 | 158 | 11.3 | 35.4 | 0.00 | 0.20 | 0.00 | 97 | 1018.6 |
| 20260503232016 | 27 | 338 | 35.4 | 35.4 | 0.00 | 0.20 | 0.00 | 97 | 1018.6 |
| 20260503231508 | 27 | 338 | 29.0 | 46.7 | 0.00 | 0.20 | 0.00 | 97 | 1018.6 |
| 20260503231000 | 27 | 270 | 17.7 | 40.2 | 0.00 | 0.20 | 0.00 | 96 | 1018.6 |
| 20260503230455 | 27 | 248 | 17.7 | 35.4 | 0.00 | 0.20 | 0.00 | 96 | 1018.6 |
| 20260503225950 | 27 | 293 | 29.0 | 29.0 | 0.00 | 0.20 | 0.00 | 96 | 1018.6 |
| 20260503225439 | 27 | 270 | 20.9 | 46.7 | 0.00 | 0.20 | 0.00 | 96 | 1018.6 |
| 20260503224932 | 27 | 248 | 20.9 | 40.2 | 0.00 | 0.20 | 0.00 | 95 | 1018.6 |
| 20260503224430 | 27 | 293 | 17.7 | 35.4 | 0.00 | 0.20 | 0.00 | 95 | 1018.6 |
| 20260503223921 | 27 | 45 | 17.7 | 46.7 | 0.00 | 0.20 | 0.00 | 97 | 1018.6 |
| 20260503223416 | 27 | 270 | 11.3 | 20.9 | 0.00 | 0.20 | 0.00 | 97 | 1018.6 |
| 20260503222914 | 27 | 225 | 46.7 | 57.9 | 0.00 | 0.20 | 0.00 | 97 | 1018.6 |
| 20260503222415 | 27 | 0 | 35.4 | 40.2 | 0.00 | 0.20 | 0.00 | 95 | 1018.6 |
| 20260503221912 | 27 | 270 | 35.4 | 49.9 | 0.00 | 0.20 | 0.00 | 94 | 1018.6 |
| 20260503221407 | 27 | 293 | 17.7 | 29.0 | 0.00 | 0.20 | 0.00 | 93 | 1018.6 |
| 20260503220905 | 27 | 135 | 17.7 | 40.2 | 0.00 | 0.20 | 0.00 | 93 | 1019.0 |
| 20260503220355 | 27 | 248 | 11.3 | 35.4 | 0.00 | 0.20 | 0.00 | 93 | 1019.0 |
| 20260503215847 | 27 | 315 | 17.7 | 35.4 | 0.00 | 0.20 | 0.00 | 93 | 1018.6 |
| 20260503215344 | 27 | 0 | 29.0 | 29.0 | 0.00 | 0.20 | 0.00 | 92 | 1018.6 |
| 20260503214336 | 27 | 293 | 20.9 | 46.7 | 0.00 | 0.20 | 0.00 | 93 | 1019.0 |
| 20260503213836 | 27 | 315 | 20.9 | 40.2 | 0.00 | 0.20 | 0.00 | 92 | 1019.0 |
| 20260503213329 | 27 | 338 | 6.4 | 35.4 | 0.00 | 0.20 | 0.00 | 91 | 1019.0 |
| 20260503212821 | 27 | 270 | 17.7 | 35.4 | 0.00 | 0.20 | 0.00 | 91 | 1019.0 |
| 20260503212319 | 28 | 248 | 17.7 | 20.9 | 0.00 | 0.20 | 0.00 | 90 | 1019.0 |
| 20260503211820 | 27 | 203 | 17.7 | 46.7 | 0.00 | 0.20 | 0.00 | 90 | 1019.0 |
| 20260503211309 | 28 | 248 | 17.7 | 46.7 | 0.00 | 0.20 | 0.00 | 90 | 1019.0 |
| 20260503210806 | 28 | 270 | 29.0 | 35.4 | 0.00 | 0.20 | 0.00 | 90 | 1019.0 |
| 20260503210304 | 28 | 23 | 17.7 | 40.2 | 0.00 | 0.20 | 0.00 | 88 | 1019.0 |
| 20260503205741 | 28 | 248 | 35.4 | 35.4 | 0.00 | 0.20 | 0.00 | 87 | 1019.0 |
| 20260503204424 | 30 | 45 | 29.0 | 35.4 | 0.00 | 0.20 | 0.00 | 87 | 1019.3 |
| 20260503203922 | 31 | 270 | 11.3 | 40.2 | 0.00 | 0.20 | 0.00 | 86 | 1019.3 |
| 20260503203417 | 31 | 225 | 17.7 | 35.4 | 0.00 | 0.20 | 0.00 | 86 | 1019.3 |
| 20260503202909 | 31 | 270 | 35.4 | 46.7 | 0.00 | 0.20 | 0.00 | 86 | 1019.3 |
| 20260503202408 | 30 | 203 | 35.4 | 35.4 | 0.00 | 0.20 | 0.00 | 89 | 1019.6 |
| 20260503201352 | 28 | 293 | 20.9 | 69.2 | 0.00 | 0.20 | 0.00 | 91 | 1019.6 |
| 20260503200848 | 28 | 158 | 29.0 | 57.9 | 0.00 | 0.18 | 0.00 | 90 | 1019.6 |
| 20260503192717 | 32 | 248 | 11.3 | 11.3 | 0.00 | 0.18 | 0.00 | 80 | 1020.0 |
| 20260503191253 | 32 | 293 | 11.3 | 11.3 | 0.00 | 0.18 | 0.00 | 81 | 1020.3 |
| 20260503190752 | 31 | 270 | 35.4 | 35.4 | 0.00 | 0.18 | 0.00 | 86 | 1020.3 |
| 20260503190248 | 31 | 248 | 0.0 | 0.0 | 0.00 | 0.18 | 0.00 | 87 | 1020.3 |
| 20260503185935 | 32 | 248 | 0.0 | 0.0 | 0.00 | 0.18 | 0.00 | 86 | 1020.7 |
| 20260503185429 | 32 | 225 | 0.0 | 6.4 | 0.00 | 0.18 | 0.00 | 86 | 1020.7 |
| 20260503184936 | 32 | 203 | 6.4 | 6.4 | 0.00 | 0.18 | 0.00 | 87 | 1020.7 |
| 20260503184423 | 31 | 338 | 0.0 | 0.0 | 0.00 | 0.18 | 0.00 | 91 | 1021.0 |
| 20260503183921 | 28 | 158 | 0.0 | 0.0 | 0.00 | 0.18 | 0.00 | 93 | 1021.0 |
| 20260503183413 | 28 | 270 | 6.4 | 11.3 | 0.00 | 0.18 | 0.00 | 94 | 1021.0 |
| 20260503182915 | 28 | 248 | 0.0 | 0.0 | 0.00 | 0.18 | 0.00 | 94 | 1021.0 |
| 20260503182403 | 28 | 203 | 0.0 | 0.0 | 0.00 | 0.18 | 0.00 | 95 | 1021.3 |
| 20260503181900 | 27 | 180 | 0.0 | 6.4 | 0.00 | 0.18 | 0.00 | 96 | 1021.3 |
| 20260503181403 | 28 | 180 | 6.4 | 17.7 | 0.00 | 0.18 | 0.00 | 93 | 1021.3 |
| 20260503180851 | 28 | 248 | 0.0 | 0.0 | 0.00 | 0.18 | 0.00 | 92 | 1021.3 |
| 20260503180343 | 30 | 270 | 35.4 | 35.4 | 0.00 | 0.10 | 0.00 | 86 | 1021.3 |
| 20260503175844 | 31 | 158 | 11.3 | 29.0 | 0.00 | 0.08 | 0.00 | 83 | 1021.3 |
| 20260503175333 | 31 | 203 | 0.0 | 17.7 | 0.00 | 0.08 | 0.00 | 83 | 1021.3 |
| 20260503174832 | 31 | 158 | 11.3 | 11.3 | 0.00 | 0.08 | 0.00 | 85 | 1021.7 |
| 20260503174335 | 30 | 203 | 11.3 | 17.7 | 0.00 | 0.08 | 0.00 | 85 | 1021.7 |
| 20260503173842 | 30 | 338 | 20.9 | 29.0 | 0.00 | 0.08 | 0.00 | 86 | 1021.7 |
| 20260503172130 | 28 | 23 | 0.0 | 17.7 | 0.00 | 0.08 | 0.00 | 85 | 1021.7 |
| 20260503171318 | 30 | 225 | 17.7 | 29.0 | 0.00 | 0.08 | 0.00 | 84 | 1021.7 |
| 20260503170811 | 30 | 225 | 29.0 | 29.0 | 0.00 | 0.08 | 0.00 | 84 | 1021.7 |
| 20260503170309 | 30 | 23 | 6.4 | 17.7 | 0.00 | 0.08 | 0.00 | 84 | 1021.7 |
| 20260503150922 | 28 | 338 | 29.0 | 40.2 | 0.00 | 0.08 | 0.00 | 87 | 1021.3 |
| 20260503150419 | 28 | 293 | 11.3 | 20.9 | 0.00 | 0.08 | 0.00 | 88 | 1021.3 |
| 20260503131247 | 26 | 270 | 0.0 | 20.9 | 0.00 | 0.08 | 0.00 | 99 | 1019.3 |
| 20260503130744 | 26 | 180 | 0.0 | 11.3 | 0.00 | 0.08 | 0.00 | 99 | 1019.3 |
| 20260503130239 | 26 | 180 | 0.0 | 17.7 | 0.00 | 0.08 | 0.00 | 99 | 1019.3 |
| 20260503090457 | 27 | 225 | 0.0 | 0.0 | 0.00 | 0.05 | 0.00 | 99 | 1018.3 |
| 20260503081425 | 27 | 180 | 0.0 | 0.0 | 0.00 | 0.05 | 0.00 | 99 | 1018.3 |
| 20260503080920 | 27 | 248 | 0.0 | 0.0 | 0.00 | 0.05 | 0.00 | 99 | 1018.3 |
| 20260503080418 | 27 | 203 | 0.0 | 0.0 | 0.00 | 0.05 | 0.00 | 99 | 1018.3 |